Regional Weather Roundup
Issued by NWS

Home | Current Version | Previous Version | Text Only | Print | Product List | Glossary Off
Versions: 1 2 3 4 5 6 7 8 9 10 11 12 13 14 15 16 17 18 19 20 21 22 23 24 25 26 27 28 29 30 31 32 33 34 35 36 37 38 39 40 41 42 43 44 45 46 47 48 49 50

000
ASUS43 KDTX 230501
RWRMI
MICHIGAN HOURLY REGIONAL WEATHER ROUNDUP
NATIONAL WEATHER SERVICE DETROIT/PONTIAC MI
100 AM EDT THU OCT 23 2014

NOTE: "FAIR" INDICATES FEW OR NO CLOUDS BELOW 12,000 FEET WITH NO
SIGNIFICANT WEATHER AND/OR OBSTRUCTION TO VISIBILITY.

MIZ047>049-052>055-059>063-066>070-074>076-081>083-230600-
SOUTHEAST LOWER MICHIGAN

CITY           SKY/WX    TMP DP  RH WIND       PRES   REMARKS
ADRIAN         CLEAR     39  36  89 N6        30.29S WCI  35
ALMA           CLEAR     41  37  86 CALM      30.30S
ANN ARBOR      CLEAR     39  35  86 CALM      30.28S
BAD AXE        FOG       29  29 100 CALM      30.29S VSB 1
CARO           CLEAR     31  30  99 CALM      30.29S
DETROIT CITY   CLEAR     43  37  79 N6        30.27F
DETROIT        CLEAR     40  37  89 NW3       30.29S
FLINT          CLEAR     33  30  88 CALM      30.28F
GROSSE ILE     CLEAR     43  37  81 NW6       30.26S
HILLSDALE      CLEAR     33  33 100 CALM      30.27S FOG
HOWELL         CLEAR     35  35  98 CALM      30.28S

CITY           SKY/WX    TMP DP  RH WIND       PRES   REMARKS
JACKSON        CLEAR     32  30  92 CALM      30.28S
LAMBERTVILLE   CLEAR     37  36  93 CALM      30.28S
LANSING        CLEAR     35  33  92 CALM      30.30S FOG
LAPEER         FAIR      32  32  99 CALM      30.28S
MASON          CLEAR     33  32  98 CALM      30.28F FOG
MONROE         CLEAR     39  37  93 CALM      30.27R
MT. CLEMENS    CLEAR     39  38  98 NW7       30.25S WCI  34
PONTIAC        CLEAR     38  35  89 N5        30.27S WCI  34
PORT HOPE        N/A     34  33  96 CALM      30.27F
PORT HURON     CLEAR     37  36  93 NW7       30.26F WCI  32
TRI CITIES     CLEAR     37  34  89 CALM      30.30F
TROY           CLEAR     41  37  84 NW3       30.30R
SAGINAW HB     CLEAR     34  34 100 W3        30.29F
$$
MIZ043>046-050>051-056>058-064>065-071>073-077>080-230600-
SOUTHWEST LOWER MICHIGAN

CITY           SKY/WX    TMP DP  RH WIND       PRES   REMARKS
BATTLE CREEK   CLEAR     36  33  89 CALM      30.29S
BENTON HARBOR  CLEAR     32  32 100 CALM      30.28F FOG
BIG RAPIDS     CLEAR     30  30 100 CALM      30.28F
COLDWATER      FOG       33  32  97 CALM      30.29S VSB 1/4
FREMONT        FAIR      33  32  98 CALM      30.28S FOG
HOLLAND        CLEAR     38  34  85 CALM      30.29F
GRAND RAPIDS   CLEAR     34  32  92 E3        30.29F
IONIA          CLOUDY    44  38  80 SE6       30.29S
KALAMAZOO      CLEAR     33  31  92 CALM      30.29F FOG
LUDINGTON      CLEAR     29  29  98 CALM      30.29S FOG
MARSHALL       FOG       30  30  99 CALM      30.29S VSB 1/2
MOUNT PLEASANT   N/A     30  30  99 CALM      30.29S FOG
MUSKEGON       CLEAR     35  31  85 CALM      30.30R
SOUTH HAVEN    CLEAR     34  33  97 CALM      30.28F FOG
$$
MIZ016>042-230600-
NORTHERN LOWER MICHIGAN

CITY           SKY/WX    TMP DP  RH WIND       PRES   REMARKS
ALPENA         CLEAR     28  26  92 CALM      30.29F
BEAVER ISLAND  CLEAR     30  30  99 CALM      30.27F
BELLAIRE       CLOUDY    30  29  96 CALM      30.29F FOG
CADILLAC       CLEAR     25  25 100 CALM      30.26F
CHARLEVOIX     CLEAR     34  34 100 SE6       30.30S WCI  29
FRANKFORT      CLEAR     30  28  90 CALM      30.28S
GAYLORD        CLEAR     28  26  92 CALM      30.27S
GRAYLING       CLEAR     25  24  99 CALM      30.28F FOG
HARBOR SPRINGS CLEAR     32  30  93 NE5       30.28S WCI  27
HOUGHTON LAKE  CLEAR     26  26 100 CALM      30.29S
MANISTEE       CLEAR     30  27  86 E5        30.29S WCI  25
OSCODA         CLEAR     29  29  99 CALM      30.29F
PELLSTON       CLEAR     25  24  96 CALM      30.29F
TRAVERSE CITY  CLEAR     31  29  92 CALM      30.27F
$$
MIZ007>008-015-230600-
EASTERN UPPER MICHIGAN

CITY           SKY/WX    TMP DP  RH WIND       PRES   REMARKS
KINROSS        CLEAR     30  30 100 CALM      30.28S
MACKINAC ISLAN CLEAR     39  35  84 S7        30.28S WCI  34
NEWBERRY       CLEAR     32  32  98 S5        30.25F WCI  28
S. S. MARIE    CLEAR     31  29  92 CALM      30.28S
$$
MIZ004>006-011>014-085-230600-
CENTRAL UPPER MICHIGAN

CITY           SKY/WX    TMP DP  RH WIND       PRES   REMARKS
MANISTIQUE     CLEAR     43  38  81 S8        30.25F
ESCANABA       CLEAR     30  27  86 CALM      30.23F
MENOMINEE      CLEAR     39  37  93 S3        30.23F
SAWYER-GWINN   PTCLDY    34  33  96 S9        30.19F WCI  26
$$
MIZ001>003-009>011-084-230600-
WESTERN UPPER MICHIGAN

CITY           SKY/WX    TMP DP  RH WIND       PRES   REMARKS
IRON MOUNTAIN  CLOUDY    39  37  92 S7        30.20F WCI  34
HOUGHTON       CLEAR     41  32  70 SE9       30.11F
COPPER HARBOR    N/A     44  38  79 SW14G23   30.10F
IRONWOOD       MOCLDY    48  34  57 S5G20     30.03S
$$

ABBREVIATIONS USED IN REMARKS
   TC - TEMPERATURE IN CELSIUS
  WCI - WIND CHILL INDEX
   HX - HEAT INDEX
  VSB - VISIBILITY




USA.gov is the U.S. government's official web portal to all federal, state and local government web resources and services.